Location: Alexandria
(38.8050°N, 77.0470°W)
Time: 03:16:32
(UTC-05:00)

Tiangong 1 - Visible Passes

Search period start: 15 December 2017 00:00
Search period end: 25 December 2017 00:00
Orbit: 275 x 302 km, 42.8° (Epoch: 14 December)

Date Brightness Start Highest point End Pass type
(mag) Time Alt. Az. Time Alt. Az. Time Alt. Az.
19 Dec 3.6 05:38:59 10° S 05:40:22 14° SE 05:41:47 10° ESE visible
20 Dec 2.4 05:43:20 24° S 05:43:52 26° SSE 05:46:04 10° E visible
21 Dec 1.1 05:47:22 53° SSE 05:47:22 53° SSE 05:49:48 10° ENE visible
22 Dec 0.7 05:51:03 62° NE 05:51:03 62° NE 05:53:15 10° ENE visible
23 Dec 1.2 05:54:29 41° NNE 05:54:29 41° NNE 05:56:31 10° ENE visible
24 Dec 1.6 05:57:40 33° NNE 05:57:40 33° NNE 05:59:41 10° ENE visible
